Time,TemperatureF,DewpointF,PressureIn,WindDirection,WindDirectionDegrees,WindSpeedMPH,WindSpeedGustMPH,Humidity,HourlyPrecipIn,Conditions,Clouds,dailyrainin,SoftwareType,DateUTC
2013-05-09 00:04:00,65.1,58.4,29.91,North,10,2.0,9.0,79,0.00,,,0.00,Wunderground v.1.15,2013-05-09 05:04:00,
2013-05-09 00:10:00,65.3,58.6,29.90,ENE,61,2.0,9.0,79,0.00,,,0.00,Wunderground v.1.15,2013-05-09 05:10:00,
2013-05-09 00:20:00,65.8,58.4,29.91,NW,319,3.0,3.0,77,0.00,,,0.00,Wunderground v.1.15,2013-05-09 05:20:00,
2013-05-09 00:29:00,66.5,58.0,29.91,East,89,4.0,4.0,74,0.00,,,0.00,Wunderground v.1.15,2013-05-09 05:29:00,
2013-05-09 00:39:00,66.7,58.1,29.91,East,83,3.0,3.0,74,0.00,,,0.00,Wunderground v.1.15,2013-05-09 05:39:00,
2013-05-09 00:50:00,66.4,57.9,29.90,East,98,2.0,9.0,74,0.00,,,0.00,Wunderground v.1.15,2013-05-09 05:50:00,
2013-05-09 01:00:00,66.2,57.7,29.90,ESE,117,2.0,2.0,74,0.00,,,0.00,Wunderground v.1.15,2013-05-09 06:00:00,
2013-05-09 01:09:00,66.3,57.8,29.90,ESE,117,2.0,9.0,74,0.00,,,0.00,Wunderground v.1.15,2013-05-09 06:09:00,
2013-05-09 01:19:00,66.6,58.1,29.89,ESE,104,1.0,9.0,74,0.00,,,0.00,Wunderground v.1.15,2013-05-09 06:19:00,
2013-05-09 01:30:00,66.7,58.1,29.89,ESE,105,1.0,1.0,74,0.00,,,0.00,Wunderground v.1.15,2013-05-09 06:30:00,
2013-05-09 01:39:00,66.9,58.3,29.89,East,94,1.0,9.0,74,0.00,,,0.00,Wunderground v.1.15,2013-05-09 06:39:00,
2013-05-09 01:49:00,67.3,58.3,29.89,East,82,2.0,9.0,73,0.00,,,0.00,Wunderground v.1.15,2013-05-09 06:49:00,
2013-05-09 01:59:00,67.6,58.6,29.89,ENE,61,3.0,3.0,73,0.00,,,0.00,Wunderground v.1.15,2013-05-09 06:59:00,
2013-05-09 02:05:00,67.7,58.7,29.89,SE,128,2.0,9.0,73,0.00,,,0.00,Wunderground v.1.15,2013-05-09 07:05:00,
2013-05-09 02:14:00,67.7,58.3,29.88,ESE,113,2.0,3.0,72,0.00,,,0.00,Wunderground v.1.15,2013-05-09 07:14:00,
2013-05-09 02:24:00,67.8,58.4,29.88,East,96,1.0,9.0,72,0.00,,,0.00,Wunderground v.1.15,2013-05-09 07:24:00,
2013-05-09 02:34:00,67.9,58.5,29.88,ESE,117,2.0,2.0,72,0.00,,,0.00,Wunderground v.1.15,2013-05-09 07:34:00,
2013-05-09 02:40:00,67.7,58.3,29.87,SE,133,2.0,2.0,72,0.00,,,0.00,Wunderground v.1.15,2013-05-09 07:40:00,
2013-05-09 02:50:00,67.4,58.4,29.87,SSE,159,0.0,9.0,73,0.00,,,0.00,Wunderground v.1.15,2013-05-09 07:50:00,
2013-05-09 02:59:00,67.3,58.3,29.87,ENE,71,0.0,9.0,73,0.00,,,0.00,Wunderground v.1.15,2013-05-09 07:59:00,
2013-05-09 03:09:00,67.5,58.5,29.87,SE,136,1.0,9.0,73,0.00,,,0.00,Wunderground v.1.15,2013-05-09 08:09:00,
2013-05-09 03:20:00,67.4,58.4,29.87,ESE,110,0.0,9.0,73,0.00,,,0.00,Wunderground v.1.15,2013-05-09 08:20:00,
2013-05-09 03:30:00,66.9,58.0,29.87,ESE,117,0.0,9.0,73,0.00,,,0.00,Wunderground v.1.15,2013-05-09 08:30:00,
2013-05-09 03:39:00,66.4,57.9,29.87,East,101,0.0,9.0,74,0.00,,,0.00,Wunderground v.1.15,2013-05-09 08:39:00,
2013-05-09 03:49:00,66.0,57.8,29.87,ESE,103,0.0,9.0,75,0.00,,,0.00,Wunderground v.1.15,2013-05-09 08:49:00,
2013-05-09 04:00:00,65.5,57.7,29.87,ESE,117,0.0,9.0,76,0.00,,,0.00,Wunderground v.1.15,2013-05-09 09:00:00,
2013-05-09 04:09:00,65.0,57.6,29.87,ESE,113,0.0,9.0,77,0.00,,,0.00,Wunderground v.1.15,2013-05-09 09:09:00,
2013-05-09 04:24:00,64.6,57.6,29.87,ESE,110,0.0,9.0,78,0.00,,,0.00,Wunderground v.1.15,2013-05-09 09:24:00,
2013-05-09 04:34:00,64.2,57.5,29.86,East,101,0.0,9.0,79,0.00,,,0.00,Wunderground v.1.15,2013-05-09 09:34:00,
2013-05-09 04:40:00,64.3,57.6,29.86,ESE,111,0.0,9.0,79,0.00,,,0.00,Wunderground v.1.15,2013-05-09 09:40:00,
2013-05-09 04:49:00,64.2,57.5,29.86,SSE,156,0.0,9.0,79,0.00,,,0.00,Wunderground v.1.15,2013-05-09 09:49:00,
2013-05-09 04:59:00,64.1,57.8,29.85,East,100,0.0,9.0,80,0.00,,,0.00,Wunderground v.1.15,2013-05-09 09:59:00,
2013-05-09 05:09:00,64.5,57.8,29.85,SE,146,0.0,9.0,79,0.00,,,0.00,Wunderground v.1.15,2013-05-09 10:09:00,
2013-05-09 05:15:00,64.5,57.8,29.85,ENE,69,0.0,9.0,79,0.00,,,0.00,Wunderground v.1.15,2013-05-09 10:15:00,
2013-05-09 05:25:00,64.4,57.7,29.85,ESE,109,0.0,9.0,79,0.00,,,0.00,Wunderground v.1.15,2013-05-09 10:25:00,
2013-05-09 05:34:00,64.8,57.8,29.85,SSE,148,1.0,9.0,78,0.00,,,0.00,Wunderground v.1.15,2013-05-09 10:34:00,
2013-05-09 05:44:00,64.8,57.8,29.85,SE,144,0.0,9.0,78,0.00,,,0.00,Wunderground v.1.15,2013-05-09 10:44:00,
2013-05-09 05:49:00,64.8,57.8,29.85,ESE,108,0.0,9.0,78,0.00,,,0.00,Wunderground v.1.15,2013-05-09 10:49:00,
2013-05-09 05:55:00,64.8,57.8,29.86,SE,141,0.0,9.0,78,0.00,,,0.00,Wunderground v.1.15,2013-05-09 10:55:00,
2013-05-09 06:05:00,64.7,58.0,29.86,ESE,114,1.0,9.0,79,0.00,,,0.00,Wunderground v.1.15,2013-05-09 11:05:00,
2013-05-09 06:14:00,64.5,57.8,29.86,East,88,1.0,9.0,79,0.00,,,0.00,Wunderground v.1.15,2013-05-09 11:14:00,
2013-05-09 06:19:00,64.5,58.2,29.86,SE,132,0.0,9.0,80,0.00,,,0.00,Wunderground v.1.15,2013-05-09 11:19:00,
2013-05-09 06:29:00,64.2,58.2,29.87,East,82,2.0,9.0,81,0.27,,,0.02,Wunderground v.1.15,2013-05-09 11:29:00,
2013-05-09 06:34:00,64.0,58.7,29.86,ESE,122,2.0,9.0,83,0.08,,,0.02,Wunderground v.1.15,2013-05-09 11:34:00,
2013-05-09 06:40:00,63.5,58.6,29.86,ESE,107,1.0,1.0,84,0.05,,,0.02,Wunderground v.1.15,2013-05-09 11:40:00,
2013-05-09 06:45:00,63.2,58.6,29.86,ESE,117,0.0,9.0,85,0.00,,,0.02,Wunderground v.1.15,2013-05-09 11:45:00,
2013-05-09 06:54:00,62.6,58.4,29.85,SSE,156,0.0,9.0,86,0.00,,,0.02,Wunderground v.1.15,2013-05-09 11:54:00,
2013-05-09 07:04:00,62.2,58.9,29.86,East,97,0.0,9.0,89,0.00,,,0.02,Wunderground v.1.15,2013-05-09 12:04:00,
2013-05-09 07:15:00,62.0,59.0,29.86,ESE,107,0.0,9.0,90,0.00,,,0.02,Wunderground v.1.15,2013-05-09 12:15:00,
2013-05-09 07:25:00,62.1,59.1,29.86,SE,124,0.0,9.0,90,0.00,,,0.02,Wunderground v.1.15,2013-05-09 12:25:00,
2013-05-09 07:34:00,62.2,59.2,29.87,East,88,0.0,9.0,90,0.00,,,0.02,Wunderground v.1.15,2013-05-09 12:34:00,
2013-05-09 07:44:00,62.2,59.2,29.86,SW,216,0.0,9.0,90,0.00,,,0.03,Wunderground v.1.15,2013-05-09 12:44:00,
2013-05-09 08:00:00,62.3,59.6,29.86,ESE,113,0.0,9.0,91,0.00,,,0.03,Wunderground v.1.15,2013-05-09 13:00:00,
2013-05-09 08:10:00,62.6,59.6,29.87,ESE,120,1.0,9.0,90,0.00,,,0.03,Wunderground v.1.15,2013-05-09 13:10:00,
2013-05-09 08:19:00,62.8,59.5,29.87,SE,132,1.0,1.0,89,0.00,,,0.03,Wunderground v.1.15,2013-05-09 13:19:00,
2013-05-09 08:29:00,62.8,59.5,29.87,SE,133,0.0,9.0,89,0.00,,,0.03,Wunderground v.1.15,2013-05-09 13:29:00,
2013-05-09 08:44:00,63.0,59.4,29.86,ESE,114,1.0,9.0,88,0.00,,,0.03,Wunderground v.1.15,2013-05-09 13:44:00,
2013-05-09 08:49:00,63.0,59.4,29.87,SSE,167,2.0,2.0,88,0.00,,,0.03,Wunderground v.1.15,2013-05-09 13:49:00,
2013-05-09 08:59:00,62.9,59.3,29.86,East,98,2.0,2.0,88,0.00,,,0.03,Wunderground v.1.15,2013-05-09 13:59:00,
2013-05-09 09:09:00,62.7,59.4,29.85,NNE,22,1.0,9.0,89,0.00,,,0.04,Wunderground v.1.15,2013-05-09 14:09:00,
2013-05-09 09:49:00,61.4,59.4,29.86,East,100,1.0,1.0,93,0.08,,,0.09,Wunderground v.1.15,2013-05-09 14:49:00,
2013-05-09 10:00:00,61.5,59.5,29.85,ESE,104,1.0,9.0,93,0.00,,,0.09,Wunderground v.1.15,2013-05-09 15:00:00,
2013-05-09 10:09:00,62.1,60.4,29.86,SE,129,1.0,1.0,94,0.00,,,0.09,Wunderground v.1.15,2013-05-09 15:09:00,
2013-05-09 10:19:00,62.6,60.5,29.87,East,90,2.0,9.0,93,0.00,,,0.09,Wunderground v.1.15,2013-05-09 15:19:00,
2013-05-09 10:29:00,63.1,61.0,29.87,ESE,122,2.0,9.0,93,0.00,,,0.09,Wunderground v.1.15,2013-05-09 15:29:00,